AirNav   Everest Fuels
 
 481 users online  

1AL7 Business Center of Alabama Heliport
Montgomery, Alabama, USA

GOING TO MONTGOMERY?


FAA INFORMATION EFFECTIVE 21 MAY 2020

Location

FAA Identifier: 1AL7
Lat/Long: 32-22-40.3100N 086-17-45.4600W
32-22.671833N 086-17.757667W
32.3778639,-86.2959611
(estimated)
Elevation: 403 ft. / 123 m (estimated)
Variation: 01W (1990)
Time zone: UTC -5 (UTC -6 during Standard Time)
Zip code: 36104

Heliport Operations

Heliport use: Private use. Permission required prior to landing
Activation date: 03/1993
Control tower: no
ARTCC: ATLANTA CENTER
FSS: ANNISTON FLIGHT SERVICE STATION
Attendance: UNATNDD
Wind indicator: lighted
Segmented circle: no
Lights: ACTVT PERIMETER LGTS - 123.45.

Heliport Communications

WX ASOS at MGM (7 nm SW): PHONE 334-288-0445
WX AWOS-3P at 1A9 (12 nm W): 118.025 (334-358-0919)

Nearby radio navigation aids

VOR radial/distance  VOR name  Freq  Var
MGMr004/9.4MONTGOMERY VORTAC112.1003E
TGEr257/32.4TUSKEGEE VOR/DME117.3002E

 
NDB name  Hdg/Dist  Freq  Var  ID
MARRA071/11.624501WMG -- --.
BLOOD348/34.236504WTOI - --- ..

Heliport Services

Runway Information

Helipad H1

Dimensions: 50 x 50 ft. / 15 x 15 m
Surface: concrete
Runway edge lights: PERI
Latitude: 32-22.671833N
Longitude: 086-17.757667W
Elevation: 403.0 ft.
Traffic pattern: leftleft

Heliport Ownership and Management from official FAA records

Ownership: Privately-owned
Owner: LSREF2 OREO (DIRECT), LLC
110 OFFICE PARK DRIVE, SUITE 200
BIRMINGHAM, AL 35223-0000
Phone (205) 380-1076
Manager: STACEY WADSWORTH
110 OFFICE PARK DRIVE, SUITE 200
BIRMINGHAM, AL 35223
Phone (205) 380-1091

Additional Remarks

FOR CD CTC ATLANTA ARTCC AT 770-210-7692.

Instrument Procedures

There are no published instrument procedures at 1AL7.

Some nearby airports with instrument procedures:

KMXF - Maxwell Air Force Base (4 nm W)
KMGM - Montgomery Regional Airport (Dannelly Field) (7 nm SW)
08A - Wetumpka Municipal Airport (9 nm N)
1A9 - Prattville Airport - Grouby Field (12 nm W)
06A - Moton Field Municipal Airport (32 nm E)
 
Loc | Ops | Rwys | IFR | FBO | Links
Com | Nav | Svcs | Stats | Notes

Continental Services
AirBoss

 
Area around 1AL7 (Business Center of Alabama Heliport)
 
Road maps at: MapQuest Bing Google
 
Aerial photo
No photo
 
Sectional chart

 
Airport distance calculator
Flying to Business Center of Alabama Heliport? Find the distance to fly.

From to 1AL7

Sunrise and sunset
Times for 07-Jun-2020
 Local
(UTC-5)
 Zulu
(UTC)
Morning civil twilight05:1010:10
Sunrise05:3910:39
Sunset19:5000:50
Evening civil twilight20:1801:18

Current date and time
Zulu (UTC)  07-Jun-2020 05:56:44
Local (UTC-5)  07-Jun-2020 00:56:44
 
METAR
KMXF 
4nm W 
070541Z AUTO 08007KT 10SM BKN016 OVC021 24/21 A2993 RMK AO2 SLP136 $
KMGM 
7nm SW 
070453Z 10005KT 10SM OVC022 24/22 A2994 RMK AO2 SLP134 T02390217
K1A9 
12nm W 
070535Z AUTO 06006KT 10SM BKN019 OVC024 24/22 A2993 RMK AO2 T02370217
TAF
KMXF 
4nm W 
061825Z 0618/0717 12012KT 9999 BKN030 BKN150 QNH2991INS BECMG 0620/0621 13010G15KT 8000 -SHRA BKN040 QNH2991INS TEMPO 0621/0624 VRB10G20KT 8000 -TSRA OVC030CB BECMG 0703/0704 09012KT 9999 NSW BKN015 QNH2993INS BECMG 0711/0712 08015G25KT 8000 -SHRA BKN009 BKN015 QNH2986INS TX30/0621Z TN20/0711Z LAST NO AMD AFT 0619 NEXT 0811
KMGM 
7nm SW 
062208Z 0622/0718 11008KT P6SM VCSH SCT035 BKN045 OVC060 TEMPO 0622/0624 VRB15G25KT 2SM SHRA BR BKN030 OVC045 FM070200 10008KT P6SM OVC090 FM070500 09010KT P6SM OVC015 FM071500 08010G20KT P6SM OVC025
NOTAMs
Click for the latest NOTAMs
NOTAMs are issued by the DoD/FAA and will open in a separate window not controlled by AirNav.

 

 
 

Would you like to see your business listed on this page?

 If your business provides an interesting product or service to pilots, flight crews, aircraft, or users of the Business Center of Alabama Heliport, you should consider listing it here.  To start the listing process, click on the button below
 
Add a business
 

Other Pages about Business Center of Alabama Heliport

Update a link
 
Copyright © AirNav, LLC. All rights reserved. Privacy Policy  Contact